Regional Weather Roundup
Issued by NWS State College, PA

Home | Current Version | Previous Version | Text Only | Print | Product List | Glossary On
Versions: 1 2 3 4 5 6 7 8 9 10 11 12 13 14 15 16 17 18 19 20 21 22 23 24 25 26 27 28 29 30 31 32 33 34 35 36 37 38 39 40 41 42 43 44 45 46 47 48 49 50
000
ASUS41 KCTP 241410
RWRCTP

REGIONAL WEATHER ROUNDUP
NATIONAL WEATHER SERVICE STATE COLLEGE PA
1000 AM EDT SUN MAY 24 2015

Note: "fair" indicates few or no clouds below 12,000 feet with no
significant weather and/or obstructions to visibility.

* = STATION THAT DOES NOT REPORT PRECIPITATION /E.G. RAIN...SNOW...ETC/
    THUNDER OR FOG.

PAZ002>004-007>009-013>016-020>023-029>032-241500-
WESTERN PENNSYLVANIA

CITY           SKY/WX    TMP DP  RH WIND       PRES   REMARKS
ERIE           SUNNY     72  44  36 S10G18    30.29F
MEADVILLE      SUNNY     67  45  45 SW6       30.33F
FRANKLIN*      SUNNY     66  43  42 S10       30.35F
NEW CASTLE     FAIR      68  48  48 CALM      30.35F
BEAVER COUNTY  NOT AVBL
BUTLER*        SUNNY     68  46  45 SW6       30.37S
PITTSBURGH INT SUNNY     68  47  46 SE3       30.34F
PITTSBURGH     SUNNY     67  43  41 S7        30.35F
INDIANA*       SUNNY     68  45  42 SW3       30.39F
LATROBE        SUNNY     64  46  52 CALM      30.38F
WASHINGTON CO* SUNNY     68  48  49 S6        30.37F
$$

PAZ004>006-010>012-017>019-024>028-033>037-041-042-045-046-049>053-241500-
CENTRAL PENNSYLVANIA

CITY           SKY/WX    TMP DP  RH WIND       PRES   REMARKS
BRADFORD       SUNNY     65  37  35 VRB6      30.35F
DUBOIS         SUNNY     69  40  34 SW9       30.36F
CLEARFIELD     SUNNY     61  42  49 S7        30.37F
JOHNSTOWN      SUNNY     65  40  39 CALM      30.38F
ALTOONA        SUNNY     67  40  37 S6        30.38F
STATE COLLEGE  SUNNY     64  43  45 CALM      30.37F
WILLIAMSPORT   SUNNY     58  39  49 CALM      30.37F
SELINSGROVE    SUNNY     63  46  54 VRB6      30.38F
FT INDIANTOWN  SUNNY     63  46  54 S2        30.37F
CAPITAL CITY   SUNNY     66  46  48 NE5       30.38F
HARRISBURG     MOSUNNY   66  49  54 CALM      30.37F
YORK           SUNNY     67  51  56 CALM      30.37F
$$

PAZ038>040-043-044-047-048-054-055-060>062-067>071-241500-
EASTERN PENNSYLVANIA

CITY           SKY/WX    TMP DP  RH WIND       PRES   REMARKS
SCRANTON       SUNNY     66  39  37 SW10      30.35F
MOUNT POCONO   SUNNY     66  35  31 W12       30.38S
ALLENTOWN      SUNNY     69  45  41 VRB7      30.37F
QUAKERTOWN*    SUNNY     66  48  52 SW7       30.38F
READING        SUNNY     66  45  46 E3        30.37F
LANCASTER      SUNNY     65  48  54 CALM      30.38F
COATESVILLE    SUNNY     64  50  59 CALM      30.40F
POTTSTOWN      SUNNY     68  50  52 MISG      30.39F
BLUE BELL      SUNNY     70  50  49 SW7       30.38F
DOYLESTOWN     SUNNY     67  46  47 VRB7      30.37F
WILLOW GROVE   NOT AVBL
NORTH PHILA    SUNNY     70  48  45 SW9       30.40F
PHILADELPHIA   MOSUNNY   68  53  58 SW12      30.39F
$$



USA.gov is the U.S. government's official web portal to all federal, state and local government web resources and services.